Theta_e
299 299 299 298 299 299 299 299 298 298 298 298 297 298 297 297 297 297 296 296 296 296 295 295 295 295 295 294 294 293 293 293 292 292 292 292 291 292 292 293 293 292
297 298 298 298 298 298 298 298 298 298 297 298 298 298 298 298 297 297 296 295 295 295 295 295 295 294 294 293 293 292 292 291 291 292 291 291 291 291 292 293 292 292
296 296 297 297 297 298 298 298 298 298 297 297 298 298 298 298 297 297 296 296 295 295 295 294 294 294 293 293 293 292 291 291 290 291 290 291 291 290 290 291 291 292
294 295 295 296 296 297 297 297 297 297 297 297 297 297 297 298 297 296 296 294 294 294 294 294 293 293 293 292 292 291 291 291 291 291 290 290 290 290 290 290 290 291
293 293 294 295 295 296 296 296 296 296 296 296 297 297 296 296 296 295 295 294 294 294 294 293 293 293 292 292 291 290 290 290 290 290 290 289 289 289 289 289 289 289
292 292 293 293 293 294 294 295 295 296 296 295 296 296 295 295 295 294 294 294 294 293 293 293 292 292 292 291 291 290 290 289 289 289 289 288 288 289 289 289 288 287
290 290 291 292 292 292 292 293 294 294 294 295 295 294 295 294 294 294 294 294 293 293 293 292 292 291 291 291 290 289 289 289 289 288 288 288 288 288 288 288 287 287
289 289 289 290 290 291 291 291 292 292 293 294 293 294 294 294 293 294 294 294 293 293 292 292 292 292 291 290 290 289 288 289 288 288 287 287 287 286 287 286 286 286
289 289 289 289 289 290 289 290 290 291 292 292 292 293 293 293 293 293 293 293 293 292 292 292 292 291 291 290 289 289 288 288 288 287 287 286 286 286 286 286 285 285
288 288 288 288 288 289 288 289 290 290 291 291 291 292 292 293 293 292 292 292 291 291 291 291 291 291 291 290 289 289 288 288 287 287 287 286 286 286 286 285 284 284
287 287 287 287 287 288 288 288 289 289 290 289 290 290 290 291 292 292 291 291 291 291 291 291 291 291 290 290 289 289 288 288 288 287 287 286 286 286 285 284 283 283
287 287 287 287 287 287 287 287 287 288 289 289 289 289 289 289 290 290 291 290 290 290 290 290 291 290 290 289 289 289 288 287 287 286 286 286 285 285 285 285 283 282
286 286 286 286 286 287 287 287 287 287 287 287 288 288 288 288 288 289 289 289 288 289 289 289 288 288 288 288 288 288 287 286 286 285 285 285 285 285 285 284 283 283
286 286 286 286 286 286 287 287 287 287 287 287 287 287 287 288 288 288 289 288 288 288 288 288 288 288 288 288 288 287 287 286 286 285 285 284 284 284 284 284 283 283
286 286 286 286 286 286 286 286 286 286 286 287 287 287 288 287 288 288 288 288 289 289 289 289 289 288 289 288 288 287 288 287 286 285 285 285 284 284 284 284 284 283
286 286 286 286 285 285 285 285 286 286 286 286 286 286 287 287 287 287 287 287 287 288 288 288 288 289 288 288 288 287 287 287 287 286 286 285 285 284 284 283 283 283
286 285 285 285 285 285 285 285 285 285 285 285 285 285 285 286 286 286 286 287 287 287 287 288 288 288 288 289 290 290 288 287 286 286 286 285 285 284 284 283 283 283
285 285 285 284 285 284 284 284 285 284 284 285 285 285 285 286 285 285 286 286 286 286 286 287 287 287 289 289 290 290 289 287 286 286 285 286 285 285 284 284 283 282
285 284 284 284 284 284 284 284 284 284 284 284 284 285 285 285 285 285 285 286 286 285 285 286 286 288 289 289 290 290 290 289 287 286 285 285 285 285 284 284 283 282
284 284 283 283 283 283 283 283 283 283 284 284 284 285 284 284 285 285 285 285 285 285 285 285 286 287 288 288 289 289 289 289 287 286 285 285 285 285 284 283 283 282
283 283 282 282 282 282 282 282 282 283 283 283 283 283 283 283 283 284 284 285 285 285 285 285 286 287 287 287 288 288 289 289 287 287 286 285 285 285 285 284 284 283
282 282 282 281 281 280 280 280 281 281 282 283 283 283 283 283 284 284 284 284 285 285 284 284 286 287 287 287 287 288 288 287 287 287 286 286 285 285 285 284 284 283
282 281 281 280 280 279 279 279 279 280 281 282 281 281 282 282 282 282 283 283 283 283 283 284 285 286 287 287 287 287 287 286 286 286 286 286 285 285 285 284 283 283
281 281 280 279 279 278 277 278 278 279 279 280 279 280 280 281 281 281 282 283 282 282 283 283 283 284 285 286 287 287 286 286 286 286 285 285 285 285 285 284 283 283
280 280 279 278 277 277 277 277 277 277 278 278 278 279 280 281 281 281 281 281 282 282 282 282 282 283 284 285 286 286 286 285 285 285 284 285 285 284 284 284 283 283
279 278 277 276 276 276 276 276 276 276 276 276 277 277 278 279 279 280 279 280 281 281 281 282 282 282 283 284 285 285 286 285 285 284 283 284 285 284 283 282 282 281
Wind_Speed
6 5 6 6 7 7 7 7 6 7 7 7 8 8 9 8 9 10 12 11 12 12 12 12 11 11 9 10 10 10 10 11 10 9 10 11 11 11 10 10 9 9
7 7 6 6 6 6 7 7 7 7 8 9 8 8 7 8 9 9 11 12 12 12 12 12 12 12 11 10 10 11 10 9 11 7 10 12 12 11 12 12 12 9
9 8 8 8 7 8 8 7 7 7 8 8 8 8 7 7 8 9 10 11 11 12 13 13 12 12 12 12 11 11 11 11 12 10 11 12 12 12 13 12 12 12
11 10 9 8 8 9 8 7 7 7 7 7 8 7 7 5 7 8 9 11 11 11 12 12 13 12 12 12 12 11 12 11 11 10 11 11 11 12 11 11 11 10
10 9 9 8 8 8 9 9 8 7 8 8 7 7 7 7 8 9 9 9 10 11 11 12 12 12 12 12 12 12 12 12 12 12 12 13 12 11 11 10 12 12
11 10 10 9 9 8 9 10 9 8 8 8 9 7 7 8 8 9 10 10 10 11 11 11 12 12 12 12 12 13 12 12 13 14 15 15 13 12 10 12 13 14
11 11 12 10 10 9 8 9 9 9 8 8 7 7 8 8 9 10 10 10 11 11 12 11 12 12 12 12 12 13 13 13 13 14 16 14 13 14 13 13 15 15
11 10 9 10 11 9 9 9 9 9 9 8 9 9 8 9 10 9 9 10 10 11 11 12 12 12 12 12 14 14 14 11 13 14 15 15 13 14 14 11 13 14
9 8 9 10 10 10 11 11 10 9 9 9 9 10 9 9 9 10 10 10 11 11 11 12 12 12 12 12 13 15 15 14 13 15 16 16 15 15 14 12 13 13
7 7 9 10 10 9 12 12 11 10 9 9 9 9 10 10 9 10 10 10 11 11 12 12 12 12 12 13 15 15 15 15 14 15 15 16 16 15 14 13 14 14
9 9 11 12 12 10 11 11 11 10 9 10 9 10 10 10 10 8 9 10 10 11 12 13 13 13 14 14 13 13 14 14 13 14 15 15 15 15 15 11 10 13
11 12 12 12 11 10 10 9 8 9 9 8 8 9 10 10 11 10 8 10 11 11 12 13 13 13 14 14 14 14 13 13 12 12 13 14 13 12 12 11 10 16
9 9 9 9 9 9 9 9 8 8 8 8 8 8 9 9 9 10 8 8 9 10 11 11 11 10 10 10 11 11 11 11 11 11 11 10 12 15 14 13 11 11
7 7 8 7 8 8 8 9 9 9 9 8 7 7 7 8 9 10 9 8 9 10 10 10 12 12 12 13 12 12 12 12 12 11 11 10 11 13 14 15 13 10
6 6 7 8 8 8 8 9 9 9 9 8 8 8 6 7 7 8 9 11 10 10 11 11 11 11 9 9 11 14 14 14 13 13 13 12 13 14 14 15 12 11
7 7 7 8 9 9 9 9 9 9 9 8 8 8 8 8 8 7 8 9 10 11 10 9 10 9 11 15 15 10 11 11 12 13 14 14 13 13 14 14 13 11
8 8 7 8 8 8 7 7 7 7 7 7 6 6 8 9 8 8 8 8 9 10 11 11 9 8 14 15 15 20 15 9 9 9 12 15 15 14 13 12 12 11
8 9 8 9 7 7 7 7 7 7 8 7 7 8 6 5 7 7 7 7 7 8 10 10 10 11 15 13 16 17 19 12 12 10 10 13 14 15 13 10 11 8
9 8 8 8 8 9 9 7 7 7 8 8 8 7 7 7 7 7 7 8 7 9 9 9 10 12 13 15 15 18 19 19 11 13 13 13 14 14 14 12 9 13
10 9 9 9 8 8 9 9 10 10 9 9 9 8 8 8 8 9 8 7 8 8 9 8 9 11 15 17 16 18 20 18 13 15 14 14 14 13 11 12 11 9
9 9 9 9 9 9 10 10 10 10 10 9 9 9 9 9 9 10 9 8 8 8 8 9 8 13 15 17 18 19 21 20 14 13 11 11 13 14 13 13 13 12
9 9 9 9 9 10 9 10 11 10 11 10 9 9 9 9 9 8 10 10 9 9 10 11 11 13 15 17 19 19 21 13 13 12 12 13 12 14 13 12 13 13
9 9 9 9 10 10 11 12 12 12 11 9 10 11 11 10 10 10 10 10 10 10 11 12 11 12 15 17 17 19 15 11 11 12 12 11 12 12 12 11 12 14
9 8 8 9 9 10 11 12 12 12 12 10 10 11 12 12 11 11 11 10 11 12 10 11 12 13 16 17 18 18 14 10 11 13 14 16 12 11 10 11 14 22
8 7 8 8 9 10 10 12 13 12 12 11 11 11 13 12 11 11 11 11 11 13 14 14 12 13 15 18 19 18 14 9 11 12 14 14 14 9 11 8 11 16
7 6 8 9 10 11 11 12 12 12 11 11 12 12 12 13 12 11 13 12 12 12 12 11 12 12 13 18 18 19 19 12 8 11 14 15 14 12 9 9 9 9
Wind_Direction
287 273 261 264 273 271 263 252 236 231 231 227 228 225 220 219 208 204 207 209 211 210 208 210 207 206 205 204 202 207 210 210 208 204 203 203 210 206 209 204 209 215
300 287 275 267 256 256 265 260 249 238 237 232 232 233 226 216 209 204 205 209 211 214 211 210 209 208 207 207 204 207 212 208 208 196 203 202 209 204 213 205 207 211
323 310 296 282 279 272 256 251 252 248 245 244 238 234 234 216 214 209 210 209 213 215 214 214 212 208 204 205 204 207 214 212 211 203 205 209 207 209 211 204 209 203
338 323 310 297 287 280 273 261 242 247 250 246 241 236 232 220 218 219 214 212 217 216 214 212 212 209 205 204 202 209 213 215 215 206 207 213 211 211 210 203 207 203
350 337 326 315 305 296 288 273 263 250 248 251 251 237 231 228 221 222 217 214 215 220 217 214 213 212 207 208 206 213 211 213 208 203 207 214 212 205 210 201 204 206
9 0 351 340 333 323 308 295 285 276 262 252 250 248 233 226 225 221 219 218 216 219 219 217 214 214 209 209 207 215 214 213 211 201 209 213 210 204 201 203 205 208
10 7 0 352 348 338 321 310 304 296 286 273 268 250 241 234 229 227 224 222 221 218 219 218 214 213 210 208 212 216 216 217 215 209 211 216 210 208 202 201 206 208
10 5 359 359 359 359 346 335 324 316 308 297 280 271 252 242 237 232 227 228 225 225 221 221 219 215 212 210 216 218 218 214 214 212 213 219 214 216 204 202 206 209
9 6 1 4 9 11 4 353 343 331 322 307 295 286 270 253 243 237 230 229 230 229 227 226 223 219 215 213 217 218 218 215 210 212 212 212 212 214 207 197 201 210
6 2 8 10 11 9 6 1 354 347 334 322 308 294 286 277 255 241 238 232 233 232 230 229 226 225 222 219 220 219 220 221 217 215 215 214 214 214 208 197 202 205
2 3 6 8 8 1 358 355 356 355 346 333 325 312 299 290 281 261 246 243 237 234 233 233 230 226 226 224 223 223 225 225 224 221 222 222 220 216 211 196 198 207
1 0 1 358 355 354 353 346 337 342 343 339 334 319 307 299 292 283 260 253 247 240 238 238 234 230 228 227 226 226 226 227 228 225 225 225 223 224 217 207 203 208
354 353 350 349 347 342 338 339 339 334 332 332 332 324 314 302 291 282 267 255 247 241 241 237 234 229 227 226 223 223 222 223 224 225 227 228 226 229 228 227 223 219
344 337 339 338 336 336 335 337 337 337 336 329 322 319 317 314 306 299 288 269 256 250 242 237 238 236 230 231 228 225 224 226 226 223 227 229 230 227 227 229 223 212
331 331 328 334 329 332 333 335 335 332 328 325 324 324 315 309 306 302 298 290 278 259 252 246 242 239 230 222 224 227 227 228 226 225 229 233 232 230 227 227 222 208
326 326 329 328 329 328 330 328 326 324 323 320 316 316 317 314 311 302 293 289 286 280 266 251 249 247 238 233 232 230 223 224 225 226 227 231 232 231 228 223 225 219
320 321 321 322 316 320 316 319 317 316 313 310 310 311 314 315 314 308 302 297 293 289 281 270 254 242 250 241 233 231 233 223 219 226 224 229 231 231 229 223 223 219
313 315 315 312 314 307 309 307 308 305 305 303 303 309 303 301 293 290 296 291 285 280 277 273 271 262 254 244 235 231 231 233 235 232 227 229 231 231 233 222 216 206
306 306 305 306 307 312 309 303 293 294 296 301 301 300 299 294 293 290 283 281 275 275 274 270 273 270 265 247 237 234 231 231 238 236 234 234 232 229 228 223 210 223
306 307 305 306 308 306 307 304 305 300 298 299 297 298 299 297 294 288 283 277 272 269 269 267 261 262 263 257 245 236 234 230 237 239 239 238 233 226 224 220 210 204
299 300 302 305 307 308 308 305 300 299 297 296 296 293 294 292 296 297 293 287 279 274 277 270 264 260 261 260 257 248 240 232 235 234 234 235 235 231 227 224 219 214
294 295 296 300 302 302 298 297 294 292 294 296 293 291 286 283 280 281 279 283 279 279 281 275 269 253 249 253 253 251 251 245 243 238 236 236 235 231 225 221 218 218
277 281 287 293 299 299 298 299 298 296 294 297 294 290 287 286 284 281 279 278 276 270 266 267 268 254 248 253 250 249 248 246 244 244 241 232 233 230 224 216 212 213
265 264 270 278 286 290 294 298 297 296 294 295 291 291 288 282 281 282 278 276 276 279 267 271 272 268 262 254 252 247 239 237 244 249 250 246 235 222 224 225 220 222
263 256 261 268 272 277 281 287 289 290 292 294 290 287 282 284 282 281 283 278 275 277 280 273 270 270 261 258 253 249 242 234 240 248 253 252 248 230 227 226 226 224
261 252 257 261 267 274 278 279 280 282 282 285 288 288 288 286 283 279 280 277 272 271 272 265 264 265 262 255 253 249 243 238 232 240 248 253 250 248 231 218 216 210